Flag for Colombia Weather past 2 weeks in Ibagué, Colombia

Now
64 °F

Passing clouds.


Feels Like: 64 °F
Forecast: 53 / 78 °F
Wind: 3 mph from East

Location: Pereira / Matecana

Current Time: Aug 1, 2015 at 5:56:38 AM

Latest Report: Aug 1, 2015 at 5:00 AM


Visibility: N/A

Pressure: 30.03 "Hg (25.84 "Hg at 1281m altitude)

Humidity: 88%

Dew point: 61 °F

Location of IbaguéLocation

Historic Weather in Ibagué — Graph

°F

Ibagué temperature yesterday

Maximum temperature yesterday: 81 °F (at 5:00 PM)
Minimum temperature yesterday: 63 °F (at 6:00 AM)
Average temperature yesterday: 72 °F

Past Weeks' High & Low Weather Summary

 TemperatureHumidityPressure
High86 °F (Jul 24, 5:00 PM)100% (Jul 20, 5:00 AM)30.17 "Hg (Jul 20, 5:00 AM)
Low63 °F (Jul 24, 6:00 AM)40% (Jul 24, 5:00 PM)29.89 "Hg (Jul 25, 4:00 PM)
Average73 °F75%30.04 "Hg
* Reported Jul 17 1:00 AM — Aug 1 1:00 AM, Ibagué, Weather by CustomWeather, © 2015

Note: Actual official high and low records may vary slightly from our data, if they occured in-between our weather recording intervals... More about our weather records

Advertising

Ibagué weather history for previous 24 hours

 ConditionsComfort  
Time TempWeatherWind HumidityBarometerVisibility
1:00 AM
Sat, Aug 1
66 °FPassing clouds.7 mph78%30.06 "HgN/A
12:00 AM66 °FPassing clouds.6 mph83%30.07 "HgN/A
11:00 PM
Fri, Jul 31
68 °FPassing clouds.9 mph78%30.07 "HgN/A
10:00 PM68 °FPassing clouds.12 mph78%30.06 "HgN/A
9:00 PM68 °FPassing clouds.7 mph83%30.03 "HgN/A
8:00 PM72 °FPassing clouds.2 mph73%30.00 "HgN/A
7:00 PM73 °FPassing clouds.2 mph74%29.97 "HgN/A
6:00 PM77 °FScattered clouds.3 mph65%29.96 "HgN/A
5:00 PM81 °FScattered clouds.3 mph66%29.95 "HgN/A
4:00 PM75 °FPartly sunny.5 mph78%29.94 "HgN/A
3:00 PM73 °FScattered showers. Scattered clouds.9 mph78%29.97 "HgN/A
2:00 PM75 °FThunderstorms. Scattered clouds.3 mph74%30.00 "Hg6 mi
1:00 PM77 °FDrizzle. Broken clouds.3 mph65%30.02 "HgN/A
12:00 PM77 °FScattered clouds.5 mph65%30.03 "HgN/A
11:00 AM79 °FPassing clouds.7 mph65%30.04 "HgN/A
10:00 AM75 °FPassing clouds.8 mph69%30.06 "HgN/A
9:00 AM73 °FPassing clouds.5 mph74%30.07 "HgN/A
8:00 AM72 °FPassing clouds.2 mph69%30.07 "HgN/A
7:00 AM64 °FPassing clouds.9 mph83%30.07 "HgN/A
6:00 AM63 °FScattered clouds.7 mph88%30.06 "HgN/A
5:00 AM64 °FPassing clouds.9 mph83%30.04 "HgN/A
Weather by CustomWeather, © 2015

See weather overviewHow to use our weather pages